Theta_e
318 318 317 316 315 314 313 314 314 314 314 314 315 315 315 316 316 315 315 315 315 315 315 315 315 317 317 317 317 318 318 318 317 317 317 317 318 317 316 316 317 317 317 317 316 315 317 319 319 319 318 317 316 316 316 317 317 320 324 321 321 325 323 323 325 319 315 317 315 312 310 310 312 311 311 311 311 310 311 311 311 311 312 313 313 313 313 312
317 316 315 314 314 313 313 314 314 314 314 315 315 315 315 316 315 315 315 315 314 314 315 314 314 316 317 317 317 318 318 317 317 317 316 317 318 317 316 317 317 317 317 317 315 314 317 319 318 318 318 316 316 316 316 316 317 322 324 319 326 331 321 317 318 314 313 315 314 311 310 309 310 310 309 311 311 310 310 311 311 311 314 316 315 313 313 313
315 314 313 313 312 312 313 313 314 314 314 315 315 315 315 316 315 315 314 314 314 313 313 313 313 315 316 317 317 318 318 317 317 317 316 317 318 316 316 316 316 317 317 316 314 313 317 318 317 318 317 316 315 316 315 315 316 317 316 321 331 327 316 312 312 312 313 313 311 310 310 308 310 309 309 310 309 310 310 312 312 311 315 317 315 314 313 312
313 312 312 312 312 312 313 313 314 314 314 315 315 316 316 315 315 314 314 313 313 312 312 312 312 314 316 316 317 318 317 317 317 316 317 317 317 315 315 316 316 317 317 316 314 313 316 317 317 317 317 316 314 315 314 314 316 314 314 324 327 315 313 314 312 313 312 311 310 309 309 309 311 311 309 309 310 312 312 314 314 313 315 316 315 313 313 313
311 311 311 311 312 312 313 313 313 314 315 315 315 315 316 315 314 314 314 313 312 312 311 312 313 315 316 316 318 317 318 320 317 316 316 316 316 315 316 316 316 317 317 316 314 313 315 315 316 316 316 315 314 315 314 313 314 314 314 317 316 311 313 314 312 313 312 310 309 308 309 310 310 310 310 310 310 313 314 316 315 314 315 314 313 313 312 313
311 311 311 311 311 312 313 313 313 314 315 315 316 316 316 315 315 314 313 313 313 312 312 312 315 317 317 317 318 317 319 320 317 316 316 315 315 316 316 317 316 317 316 315 313 312 314 314 316 315 313 314 314 313 313 312 312 315 315 311 310 310 312 313 312 312 311 309 308 308 310 309 308 309 310 309 310 313 316 317 315 314 315 313 313 313 313 313
312 311 311 311 312 312 312 313 313 314 315 316 316 315 316 316 315 314 314 313 313 312 312 314 317 318 317 317 318 318 318 318 316 317 317 316 316 316 317 317 316 317 316 315 313 313 314 314 316 313 313 316 314 311 312 311 309 313 316 311 310 311 309 311 311 310 309 307 308 309 308 307 308 309 309 309 311 314 316 316 315 315 315 314 314 314 314 313
313 312 312 312 312 313 313 313 313 314 315 316 316 315 316 316 315 314 314 314 313 313 312 315 318 318 317 318 318 318 317 317 316 316 317 317 317 317 317 317 317 317 316 314 313 313 314 314 315 314 315 316 313 311 311 310 310 312 315 311 310 311 310 310 309 309 308 307 308 307 307 308 310 309 308 309 312 314 315 315 315 316 316 316 316 315 315 315
314 313 312 312 312 313 313 313 314 314 315 316 316 316 316 316 315 314 314 314 314 315 313 315 318 318 318 318 318 317 316 317 317 317 317 318 318 318 318 317 318 318 315 314 313 313 315 314 315 315 315 314 312 311 309 311 314 311 312 310 308 310 310 310 309 309 309 307 307 307 308 309 311 310 309 311 313 315 315 315 316 316 316 317 316 316 316 316
315 314 313 312 313 313 313 313 314 314 315 316 316 316 316 315 315 315 315 315 315 315 313 316 318 318 318 317 318 318 317 317 318 318 318 318 318 318 318 318 318 317 316 316 315 314 315 315 315 315 314 312 310 310 308 312 315 310 309 309 307 308 308 308 309 308 309 309 307 308 311 310 310 310 311 313 314 315 315 315 316 316 316 316 316 316 315 315
316 315 313 313 313 313 313 314 314 315 316 316 317 316 316 315 315 315 315 315 316 315 314 316 318 317 318 317 317 317 317 317 318 318 318 318 318 318 317 317 317 317 316 316 316 315 315 315 316 315 314 312 311 311 309 310 311 309 308 308 308 308 309 309 309 308 309 312 309 307 310 308 307 308 311 312 313 314 314 314 315 315 315 315 315 315 314 314
316 315 314 313 313 314 314 314 314 315 316 316 317 317 316 315 315 316 317 317 317 315 315 317 317 317 318 317 317 317 317 317 317 317 317 318 317 317 316 316 316 315 315 316 316 315 315 315 315 314 314 313 313 312 311 310 309 308 307 310 312 311 313 312 310 308 308 313 311 308 311 310 310 312 313 313 313 314 313 313 313 314 314 314 314 313 313 313
316 315 314 313 313 314 314 314 315 316 316 317 317 317 317 316 316 316 318 319 318 316 316 317 317 317 318 317 317 317 317 317 317 316 317 317 317 316 315 314 313 313 313 314 315 315 314 314 313 312 312 312 312 312 312 308 307 310 306 309 315 314 318 314 309 310 310 313 311 311 314 314 315 315 313 313 313 313 312 313 312 312 312 312 312 312 312 312
316 315 313 313 313 314 314 314 315 315 316 317 317 317 317 316 317 317 317 318 317 316 317 317 316 318 317 317 317 317 317 317 316 315 315 316 316 315 314 313 312 312 313 314 315 314 314 313 312 311 311 311 311 311 312 310 312 315 309 314 321 316 319 316 310 311 312 313 310 312 314 313 314 313 312 313 312 312 311 311 312 311 311 311 311 311 311 311
316 315 314 313 314 314 314 314 315 315 316 317 316 317 316 316 317 317 317 318 317 317 317 316 316 318 317 316 317 316 317 316 316 315 314 315 315 315 315 313 312 312 314 314 314 314 313 313 311 311 310 310 311 312 315 320 323 320 313 319 322 314 315 314 310 310 312 313 310 312 315 313 313 313 312 312 312 312 311 311 312 311 311 311 311 311 311 311
316 315 313 313 314 314 314 314 315 315 316 316 316 317 316 316 318 318 318 317 317 317 317 316 316 318 318 317 316 316 316 316 316 315 314 315 314 315 315 313 312 313 314 314 314 313 312 312 311 311 310 310 314 315 318 325 329 323 316 318 318 314 313 312 311 309 308 311 310 311 313 313 313 312 312 312 312 312 311 311 312 312 311 311 311 311 311 311
317 314 313 313 314 314 314 314 314 315 315 315 316 317 315 316 319 320 318 317 317 318 318 316 316 318 318 317 316 316 316 316 316 316 315 315 314 315 314 313 312 313 313 314 314 313 312 312 311 311 311 312 315 318 320 322 322 320 316 316 316 315 312 312 313 309 306 310 311 311 311 311 312 311 312 312 312 311 310 311 311 311 311 311 311 311 311 311
317 314 313 313 314 314 314 314 314 315 314 313 314 314 314 317 319 320 320 317 316 318 318 316 316 319 317 316 317 316 316 316 316 316 315 314 315 314 314 313 312 313 314 314 314 313 313 312 312 317 317 314 315 317 318 317 315 316 315 315 314 313 312 312 313 311 309 310 311 312 312 311 312 312 311 312 312 311 310 311 311 311 311 311 311 310 309 309
316 314 313 314 314 314 314 314 314 314 313 314 314 312 313 316 317 319 321 319 316 317 318 316 317 319 317 316 316 315 316 316 316 316 315 313 314 314 313 313 312 313 313 314 315 311 311 314 316 321 320 316 316 313 313 315 314 313 313 312 313 312 312 311 312 311 310 310 311 313 313 312 312 312 311 312 311 311 311 311 311 311 310 309 308 307 306 305
316 314 313 314 314 313 314 313 313 312 311 312 312 311 311 313 315 316 317 318 317 315 316 316 316 317 317 316 316 316 316 316 315 315 314 312 313 313 313 312 313 314 313 313 315 310 311 318 321 321 318 316 315 310 310 312 311 311 312 313 312 312 311 310 311 311 309 310 312 313 313 312 312 312 312 311 311 311 311 310 310 310 308 307 305 304 303 303
316 314 313 314 313 313 313 311 312 311 309 308 309 309 308 308 312 313 312 315 316 315 316 317 317 316 316 316 315 316 316 316 315 315 312 311 313 312 312 313 315 316 313 309 311 312 314 319 321 319 317 315 312 309 309 310 310 311 313 315 312 311 312 311 311 311 309 310 313 313 314 312 312 312 311 311 311 311 311 310 309 308 306 305 304 303 302 302
316 314 314 314 313 313 311 310 311 310 307 307 307 307 306 306 309 310 310 315 316 314 317 318 317 315 315 315 315 315 316 315 315 314 311 311 313 312 311 314 316 316 314 312 314 316 318 322 323 314 309 311 312 310 310 309 311 313 313 314 313 312 313 312 312 312 311 311 312 313 313 312 311 311 311 311 310 310 311 310 308 307 305 303 303 302 302 301
316 314 314 314 313 311 310 309 310 309 307 306 306 305 305 305 306 309 312 315 317 315 316 318 316 314 315 315 315 315 314 314 314 312 311 311 312 312 311 313 315 315 315 316 316 316 317 322 318 307 306 310 314 316 313 310 311 314 314 313 313 313 312 313 313 312 311 310 311 312 313 312 311 310 310 310 310 310 311 310 308 307 305 302 302 301 301 301
317 314 314 314 313 310 309 308 309 309 307 306 305 304 304 304 305 309 313 314 316 315 314 317 315 314 315 314 314 314 313 313 313 310 311 312 311 311 311 310 312 316 315 312 312 314 316 314 307 307 314 313 313 316 314 311 312 315 315 313 313 313 313 313 312 311 310 309 311 313 313 312 310 309 309 309 309 310 310 309 306 305 305 303 302 301 300 300
317 315 314 314 313 310 308 309 308 308 306 306 305 304 304 304 305 311 313 313 318 318 315 316 315 314 315 314 313 311 312 313 311 310 311 311 310 311 311 309 311 318 317 311 311 314 314 308 305 312 318 313 311 315 313 311 312 315 317 315 314 314 314 314 312 310 310 309 311 312 310 309 308 307 308 308 309 309 309 309 305 304 304 303 302 300 299 299
316 315 314 314 313 310 308 308 307 306 306 305 305 304 303 304 307 313 313 315 321 319 316 316 314 315 314 314 312 310 313 314 310 309 310 310 309 309 311 310 309 313 313 309 310 312 311 309 308 313 314 311 313 314 313 311 311 314 315 314 314 314 313 314 312 311 310 308 308 310 309 308 308 307 308 308 309 309 310 309 305 304 304 303 301 299 298 298
316 315 313 313 313 310 308 307 306 305 304 305 304 304 303 304 310 312 312 320 322 315 316 316 313 315 314 313 312 310 313 312 309 310 310 310 309 307 310 311 309 310 307 307 313 314 311 312 313 313 311 312 313 312 312 312 312 315 314 311 311 311 310 311 310 310 309 308 307 308 310 310 309 308 309 311 311 312 311 308 306 305 304 303 300 298 297 297
315 314 313 313 312 311 308 306 305 304 304 304 303 303 304 305 311 312 316 325 322 313 315 315 313 314 314 312 311 310 310 310 309 311 309 308 308 306 308 310 309 309 306 307 315 313 309 313 314 312 310 311 312 311 311 310 312 317 314 308 308 309 309 310 309 309 308 308 308 308 309 310 310 308 310 314 314 313 311 307 306 305 303 301 298 297 297 297
314 314 312 311 310 309 307 306 305 304 303 304 303 303 305 307 311 315 321 325 318 312 314 314 314 314 313 312 311 309 309 310 310 311 309 307 306 306 309 308 305 307 306 306 313 312 308 309 309 308 309 310 311 309 310 312 310 311 310 308 308 308 308 308 308 309 308 308 309 308 308 309 310 308 309 313 313 310 308 305 305 304 302 299 297 297 296 296
314 313 311 309 308 306 306 306 304 303 303 303 303 304 306 311 315 320 328 324 314 312 312 313 315 312 313 316 314 309 309 310 308 308 308 306 306 306 308 307 304 308 310 308 312 311 306 306 305 306 307 307 308 307 308 309 306 305 308 309 308 308 309 310 310 310 309 309 309 309 309 309 308 306 309 312 310 306 304 301 301 301 299 297 296 297 296 296
313 312 310 307 305 304 305 304 303 303 303 303 304 305 308 314 318 322 328 322 312 312 313 315 316 315 315 315 314 312 310 309 306 306 308 307 307 308 309 311 307 310 317 316 317 312 308 310 307 305 306 305 308 308 305 304 303 304 308 308 309 311 310 308 309 311 309 308 307 307 308 305 303 303 307 308 306 303 301 298 298 299 297 296 296 297 296 296
312 310 307 305 303 303 303 302 302 302 302 304 305 307 312 318 320 323 325 320 317 316 314 314 313 316 317 312 312 314 311 309 306 305 308 308 309 307 308 311 307 310 316 314 313 311 314 317 308 305 306 305 309 311 307 306 304 303 307 309 309 309 307 304 307 309 307 306 304 303 303 302 301 302 304 306 305 301 298 297 297 297 296 296 297 297 296 296
310 308 305 303 302 302 302 302 302 302 302 305 306 310 318 321 323 324 321 320 320 315 313 314 313 316 314 310 311 311 308 308 307 305 306 308 310 307 305 306 305 308 311 310 309 309 313 314 307 306 307 304 308 311 307 307 304 301 306 309 308 306 305 305 306 306 303 303 301 300 302 302 303 305 305 304 303 299 297 297 297 297 297 297 297 297 296 295
309 306 302 302 302 302 302 301 302 302 303 305 306 311 319 321 323 322 318 320 320 313 312 315 314 314 311 309 310 308 306 307 306 307 309 310 312 310 307 307 305 307 309 309 310 309 308 308 307 308 308 305 306 305 305 304 301 302 306 308 308 307 306 305 303 302 300 300 300 301 303 304 304 306 304 300 299 297 297 297 297 297 297 297 297 297 296 295
307 304 302 302 301 302 302 301 303 303 303 306 307 309 314 318 321 319 316 318 317 314 313 311 311 312 312 311 309 306 306 306 306 308 311 311 309 309 308 306 304 305 309 310 311 309 308 308 308 306 305 306 303 300 303 303 299 303 307 307 309 307 304 302 300 300 299 300 301 302 303 303 302 304 301 297 297 297 297 297 297 297 297 297 297 297 296 296
304 303 302 302 302 302 301 301 304 304 305 307 307 308 313 318 320 319 316 313 313 315 313 310 311 311 312 312 309 307 306 304 305 306 308 309 308 307 306 304 302 303 307 309 312 310 308 308 308 306 303 303 300 297 299 300 300 305 306 305 306 304 301 299 299 300 301 301 301 301 301 300 299 301 299 296 296 296 296 297 296 296 296 297 297 296 296 295
302 302 302 302 302 302 301 302 304 304 306 308 307 311 315 314 314 315 314 310 310 315 313 311 312 310 311 313 312 311 307 303 305 306 308 310 308 306 306 304 300 300 301 305 309 308 306 305 305 306 306 301 297 296 297 298 301 304 303 301 301 300 299 300 299 300 300 299 298 298 298 297 296 299 298 295 295 296 296 296 295 295 296 296 296 296 295 295
301 301 300 301 302 302 301 303 305 306 307 307 309 314 315 310 306 306 310 311 310 314 313 311 311 310 311 314 313 309 306 304 307 309 310 310 306 304 306 304 300 298 297 300 306 306 305 304 303 305 306 301 297 298 299 300 300 299 298 298 299 299 300 301 300 298 297 296 296 296 296 296 296 296 296 295 295 296 296 295 295 296 296 296 296 295 295 295
301 299 300 303 303 302 302 304 308 308 306 307 311 313 311 310 307 305 309 312 310 312 315 313 311 309 310 312 310 307 304 305 309 309 307 308 306 302 301 303 301 298 297 298 302 304 304 305 304 303 301 298 297 299 299 300 299 296 296 297 298 300 300 299 298 296 296 295 295 295 295 295 295 295 295 295 295 295 295 295 295 296 296 296 295 295 295 295
300 299 302 305 305 305 305 306 309 309 309 310 312 313 310 309 310 309 310 311 309 311 314 314 311 309 310 309 307 307 306 307 309 309 306 307 307 302 298 298 298 296 297 297 298 302 304 305 303 300 298 296 297 300 299 297 296 295 295 296 296 297 298 297 296 296 296 294 294 294 294 295 295 295 295 295 295 295 295 295 296 296 295 295 295 294 294 295
300 301 304 306 307 307 308 309 310 311 315 314 310 313 314 311 311 311 310 310 310 309 309 311 311 310 311 309 306 307 308 308 308 306 306 306 306 303 298 296 296 296 297 299 298 300 303 304 301 297 296 295 296 299 298 295 296 296 296 296 295 295 296 296 295 295 295 295 294 295 295 295 295 296 296 295 295 295 295 296 295 295 295 294 294 294 294 295
300 303 306 306 308 308 309 312 310 310 316 315 309 311 313 312 311 311 310 309 310 308 307 309 310 310 311 310 308 307 307 307 306 305 305 305 303 301 297 294 295 295 296 298 298 298 299 301 299 297 295 295 296 297 295 295 296 297 296 295 294 294 295 295 294 294 295 295 295 296 296 296 296 297 296 295 295 295 295 295 294 294 294 294 294 294 294 295
300 304 308 307 308 309 310 311 310 310 314 312 308 309 309 309 309 309 309 309 308 307 307 308 307 307 308 307 305 306 305 304 306 305 304 301 298 297 295 294 294 294 295 297 297 296 296 298 299 296 294 294 295 295 294 295 295 295 294 294 294 294 294 295 295 294 294 294 295 295 296 296 296 297 295 295 295 295 294 294 293 293 293 293 293 294 294 294
300 302 306 306 308 309 309 309 310 312 312 309 309 311 308 308 309 308 309 308 306 306 307 307 305 304 304 302 303 305 303 301 303 303 301 300 297 294 293 294 293 293 295 296 296 295 295 297 298 294 291 292 292 293 293 294 294 293 293 294 294 294 294 294 294 294 294 294 294 295 295 295 295 296 295 295 294 294 293 293 293 293 293 293 293 293 294 294
300 301 303 305 307 309 308 307 308 311 312 310 310 311 309 307 307 307 308 306 303 303 305 304 302 301 302 301 302 304 302 301 302 301 300 299 297 294 293 294 293 293 295 295 295 295 296 297 297 294 292 291 291 292 292 293 293 293 293 294 293 293 293 293 293 293 294 294 294 294 294 294 294 295 294 294 293 292 292 292 292 292 293 293 293 293 293 294
300 302 304 304 306 309 307 305 305 308 312 310 307 307 309 308 305 304 304 304 302 301 301 300 299 300 301 301 302 303 301 301 300 299 299 298 297 295 294 294 293 293 295 295 294 295 296 296 295 294 293 292 292 292 293 293 293 293 293 293 293 293 293 293 293 293 293 293 293 294 294 294 294 294 293 292 292 292 292 292 292 292 293 293 293 293 293 293
301 303 305 305 306 307 306 305 304 305 307 307 305 306 307 306 305 303 303 303 301 300 299 299 299 301 301 300 302 302 300 299 299 298 298 298 297 295 293 293 293 294 296 295 293 294 296 295 294 293 293 292 293 292 293 293 293 293 293 293 293 293 293 293 292 292 292 292 293 293 293 294 293 292 292 291 291 292 292 292 292 292 293 293 293 293 293 293
301 303 304 305 307 307 305 305 304 304 304 304 305 306 305 305 305 304 303 301 299 300 300 299 300 302 302 301 301 300 298 297 297 296 296 296 296 295 294 293 293 295 295 294 293 294 294 294 294 294 293 293 293 293 293 293 293 293 293 292 292 292 292 292 292 292 292 292 293 293 292 292 292 291 291 291 291 292 291 292 292 292 293 293 293 293 293 293
299 301 302 303 305 305 304 304 304 304 304 303 304 305 305 305 305 303 303 301 300 300 299 300 301 300 301 301 300 300 299 298 298 296 295 297 295 295 296 294 293 294 293 292 293 293 294 294 293 293 294 293 293 293 293 293 292 292 292 292 292 292 292 292 292 291 292 292 292 291 291 291 291 291 291 291 292 292 292 292 292 292 293 293 293 293 293 293
299 300 301 302 302 302 302 303 303 303 304 303 303 304 303 304 304 304 303 301 302 302 299 299 301 299 299 300 300 301 300 300 300 296 295 297 296 295 296 296 294 294 292 292 293 293 294 294 293 293 293 292 292 292 292 292 292 291 291 291 291 291 291 291 291 291 291 291 290 291 291 291 291 291 291 292 292 292 292 292 292 292 292 292 293 293 293 293
299 300 301 302 302 301 301 301 302 303 303 303 303 304 304 304 303 304 303 300 301 302 299 300 300 297 297 298 299 299 298 296 297 295 294 296 295 294 296 294 293 294 293 293 294 294 294 294 293 293 293 292 291 292 291 291 291 291 291 290 291 291 291 291 291 290 291 290 290 291 290 290 291 291 291 292 292 292 292 292 292 292 292 292 292 292 293 293
299 300 300 302 303 301 300 300 301 301 302 302 303 303 304 304 302 303 303 300 297 298 299 298 297 296 297 296 296 297 295 293 294 294 293 294 293 293 294 293 292 293 293 293 293 294 294 294 294 294 292 292 291 291 291 290 290 292 293 291 291 291 290 290 290 290 291 291 290 290 290 290 291 291 291 291 292 292 292 292 292 292 292 292 292 292 293 293
Wind_Speed
17 17 18 19 19 20 22 24 26 26 27 28 28 28 27 27 27 28 28 28 29 28 27 28 26 22 20 19 19 12 9 12 12 12 16 17 14 12 11 11 12 14 15 14 12 9 6 7 8 10 11 9 10 11 9 7 5 2 3 2 3 3 4 5 7 7 2 6 8 9 8 4 10 13 14 15 15 19 22 28 29 27 30 31 32 31 29 29
17 17 18 19 19 20 22 24 25 26 27 27 28 28 27 27 27 27 27 27 28 28 28 28 26 21 18 18 16 10 7 9 9 12 17 15 12 11 10 11 13 15 15 13 11 10 8 8 9 11 12 9 9 10 9 6 4 2 3 1 4 6 6 6 7 7 5 8 11 15 14 7 12 13 10 9 12 14 14 24 28 24 26 25 24 22 22 23
17 17 18 19 20 21 22 23 24 25 27 27 28 27 27 27 27 26 26 27 29 29 28 27 26 21 18 15 14 10 5 7 9 13 14 12 9 9 10 12 14 16 14 12 12 10 8 9 9 10 11 9 9 10 8 7 4 1 3 1 6 6 5 8 11 12 12 13 11 14 14 10 18 16 8 6 11 13 11 19 19 18 24 25 24 19 19 22
17 17 18 19 20 21 22 23 24 25 27 27 27 26 26 27 26 26 26 28 29 30 29 27 26 21 17 13 11 10 5 7 11 14 12 9 6 8 10 13 14 15 13 10 10 8 7 8 8 10 11 7 7 7 4 6 5 2 4 4 7 3 4 12 14 15 16 12 10 14 12 12 22 18 11 8 9 11 15 23 19 19 28 30 30 25 24 26
17 18 18 19 20 21 22 23 24 25 26 26 27 26 26 26 26 25 26 28 31 31 29 28 26 21 16 11 9 8 6 5 8 11 10 7 6 8 11 13 13 12 12 10 9 7 7 8 9 11 10 4 4 4 2 5 3 2 6 11 11 3 5 16 15 14 14 10 12 13 10 14 18 16 18 12 6 13 24 32 28 27 35 34 34 33 32 31
17 18 18 19 20 21 22 23 24 25 26 25 25 25 25 26 25 25 25 28 31 31 30 28 24 18 13 9 8 7 7 4 5 7 7 6 6 8 10 11 11 12 12 10 8 7 7 7 9 9 7 3 1 1 3 6 3 3 7 9 13 9 9 19 18 15 15 10 11 12 13 19 17 16 24 19 19 29 36 39 37 38 40 38 37 35 33 32
18 18 18 19 20 21 23 24 24 25 25 24 24 24 24 25 24 23 24 28 32 31 30 27 21 15 12 8 9 12 14 8 6 6 6 6 6 7 9 10 10 11 11 9 7 7 7 8 10 8 4 3 1 2 3 5 5 4 6 7 13 13 14 22 22 21 21 15 18 21 17 19 19 13 15 21 31 38 40 40 40 39 37 35 35 32 30 29
18 18 19 19 20 22 23 23 24 24 24 23 24 24 24 24 23 22 24 29 32 31 30 25 17 14 11 8 12 17 16 9 6 5 4 5 6 6 8 9 8 10 9 8 7 8 8 8 10 8 2 1 1 4 3 4 5 7 6 9 12 17 23 26 24 25 24 19 20 17 13 19 25 16 13 27 37 34 32 33 31 30 29 28 29 28 29 30
18 19 19 20 21 22 23 24 24 24 24 23 24 24 24 24 22 22 24 29 32 30 29 22 15 14 10 8 12 13 10 7 5 4 4 5 6 6 7 8 8 8 9 9 8 7 8 8 8 6 3 3 3 4 1 2 3 8 8 11 11 21 31 28 25 26 23 18 10 6 9 19 26 16 14 26 26 22 21 22 22 24 24 23 24 26 29 32
18 19 19 20 21 22 23 24 24 25 24 24 24 23 24 24 21 21 23 29 31 29 27 19 14 12 9 7 10 9 7 8 6 5 5 5 6 7 7 8 8 7 8 9 9 9 9 9 8 8 6 5 4 4 3 1 3 6 9 14 15 24 30 25 22 21 19 14 5 7 8 17 19 7 8 17 18 18 21 23 23 24 24 24 26 28 29 32
18 19 20 20 21 22 23 24 25 25 24 24 24 23 25 24 22 21 23 30 32 29 25 16 13 10 8 11 13 9 7 10 8 6 6 6 6 7 7 8 8 9 9 9 10 10 10 9 8 7 4 3 3 5 6 5 5 7 9 12 16 19 23 21 14 11 12 9 6 5 9 12 9 4 10 20 19 18 23 27 26 25 27 29 30 32 32 33
17 19 20 20 21 22 23 24 25 25 24 24 24 24 24 24 23 21 24 31 32 30 22 14 13 6 6 12 14 10 9 11 9 8 8 7 8 8 10 11 12 14 13 11 10 10 10 8 7 6 3 4 5 3 4 7 8 8 5 5 9 11 13 15 8 7 10 8 15 14 7 5 2 8 15 20 18 18 24 28 28 29 32 33 34 35 35 34
17 19 20 20 21 22 23 24 24 24 24 24 24 25 24 24 24 21 24 30 31 29 20 13 12 4 5 8 11 10 10 10 10 11 10 10 10 10 12 14 15 17 16 13 11 10 10 9 7 5 4 3 3 3 8 10 7 5 2 1 5 8 7 8 9 11 11 8 17 18 7 7 5 12 14 16 16 17 25 30 30 32 33 33 33 35 36 34
17 19 19 20 21 22 23 23 25 25 25 25 25 25 24 23 24 21 24 30 30 27 16 12 10 4 5 6 7 10 10 9 11 13 14 13 12 10 10 14 18 19 17 13 11 11 11 10 7 4 1 2 5 7 10 8 4 2 1 2 4 5 6 9 12 10 8 6 13 15 7 12 12 13 10 12 19 20 26 34 34 32 31 30 31 33 36 34
17 18 19 20 20 21 23 23 25 25 25 26 25 26 23 23 24 21 25 30 28 24 13 10 8 2 6 6 5 9 9 8 11 15 18 16 15 12 8 12 18 19 16 12 10 11 12 9 5 3 1 2 4 5 6 5 4 3 3 4 4 3 8 12 10 3 4 6 9 10 7 11 14 19 18 17 21 22 25 35 38 36 32 30 31 33 36 37
17 19 19 19 20 21 22 23 25 25 25 26 26 25 22 23 24 20 25 30 28 21 9 7 7 2 4 4 3 7 8 7 10 16 20 19 17 13 9 12 17 17 14 9 8 11 11 7 4 3 3 2 2 4 4 4 4 4 4 5 6 6 9 11 7 1 2 3 6 4 5 12 14 23 35 31 22 18 21 32 39 39 35 31 31 33 36 40
17 19 18 18 20 21 22 23 24 25 25 26 26 25 23 23 23 20 26 30 26 18 6 6 6 4 4 6 3 7 8 7 10 15 20 21 18 14 9 14 18 15 13 9 6 11 10 6 4 2 4 4 3 3 5 5 5 4 3 2 5 6 6 8 9 5 3 2 5 6 8 15 17 21 36 40 30 21 20 28 36 38 34 31 32 34 37 40
17 19 18 18 19 21 22 23 24 25 25 25 25 25 23 22 22 22 27 30 25 15 3 5 6 5 3 8 7 10 7 5 7 12 20 22 19 15 10 16 19 13 14 9 6 12 12 6 3 2 4 4 4 6 5 4 4 5 5 4 5 5 5 6 8 9 8 5 4 8 13 18 20 20 26 37 36 26 23 28 32 32 30 30 32 36 38 39
17 18 18 18 19 21 22 22 24 25 24 25 25 25 23 23 22 20 27 30 21 10 3 8 9 1 1 7 11 10 5 5 6 10 19 22 20 15 10 16 19 14 12 8 8 13 10 6 5 3 5 5 4 3 1 6 5 6 6 4 6 7 9 9 8 8 8 9 7 6 13 19 23 23 22 33 39 31 30 32 26 23 25 29 33 35 37 37
17 18 18 19 19 21 22 22 24 23 24 25 27 26 23 23 16 12 25 28 17 8 6 9 9 5 4 5 12 11 5 4 5 11 20 21 20 15 11 18 19 13 9 3 6 8 7 6 4 3 4 7 6 1 3 3 3 4 5 5 6 6 11 12 10 9 2 4 9 6 13 22 25 24 21 29 37 30 26 28 22 19 23 27 31 33 35 36
17 17 18 19 19 21 21 22 23 22 23 23 25 23 18 16 7 6 18 20 17 13 6 5 4 5 5 4 13 15 9 5 3 12 22 21 19 12 11 17 13 8 6 3 5 5 5 5 5 6 7 8 4 4 5 2 1 3 4 6 7 4 10 13 11 11 3 0 8 8 13 24 26 26 22 23 27 22 19 19 16 19 24 26 29 31 34 37
17 17 18 19 19 21 20 21 22 20 20 20 21 20 16 13 9 9 10 11 18 13 3 2 2 5 6 4 13 17 13 9 2 12 24 21 18 12 10 11 6 3 6 4 3 5 5 3 8 7 5 4 2 6 6 3 2 2 3 5 7 4 7 11 10 10 3 2 7 9 11 22 28 27 22 18 17 19 23 13 15 21 23 25 27 30 35 40
17 17 18 18 19 20 20 21 20 18 19 19 18 18 16 14 14 13 8 8 14 8 2 1 2 6 8 6 12 14 12 9 4 15 25 19 18 15 8 6 3 5 4 4 5 5 5 6 7 3 1 2 3 4 5 3 2 2 4 4 7 7 5 7 9 12 9 5 5 4 7 15 23 25 17 18 17 15 22 11 24 25 22 23 27 32 37 40
17 18 18 18 18 19 20 21 19 17 19 19 16 16 16 16 16 14 9 5 7 5 1 1 2 6 8 9 13 13 10 7 7 17 21 18 16 11 5 3 3 4 2 2 3 3 8 8 3 4 4 2 2 6 4 3 3 3 6 5 7 9 7 8 9 11 14 14 4 3 6 9 16 24 15 16 18 12 19 11 20 23 23 26 31 35 37 40
18 18 18 18 17 18 20 19 17 18 20 18 15 15 16 16 17 13 7 2 4 5 1 2 1 4 6 10 14 14 7 4 11 17 16 18 15 8 4 3 3 3 4 1 1 5 8 6 2 4 4 3 0 6 2 1 4 4 5 7 9 10 10 10 11 8 10 15 4 7 6 10 14 26 19 14 16 14 17 9 14 17 22 26 30 32 34 38
18 18 18 18 17 17 18 17 16 18 19 17 15 15 15 15 17 11 4 2 2 4 1 1 1 2 5 9 15 15 4 3 14 14 15 19 14 9 5 2 2 2 2 1 2 4 4 3 3 3 4 3 2 5 4 3 1 5 3 5 7 6 7 9 9 6 5 13 11 5 5 11 13 23 20 13 16 16 12 7 11 13 19 23 25 29 33 36
18 18 17 18 16 16 16 15 16 17 17 15 15 15 14 15 15 9 4 4 2 2 1 1 0 0 3 8 15 11 2 7 13 9 14 19 13 10 5 3 3 3 1 2 3 2 2 6 6 3 2 2 3 4 3 4 4 4 4 1 5 6 8 10 7 5 5 12 16 5 4 7 12 19 14 8 13 13 6 8 10 13 19 21 24 28 32 35
18 17 17 17 16 15 15 14 15 16 15 14 14 13 13 15 13 6 3 3 2 1 2 1 1 1 4 7 11 8 2 7 6 4 13 15 11 10 4 1 1 6 3 3 3 5 1 4 5 4 4 1 3 4 2 4 3 5 6 6 8 7 9 9 5 7 7 9 12 8 4 5 11 14 8 4 9 7 6 9 10 14 19 22 25 30 34 35
17 17 16 16 16 15 14 14 15 15 14 13 13 12 13 13 8 4 4 2 3 1 2 0 0 3 8 7 6 7 3 2 1 6 10 10 12 12 3 2 1 5 4 4 5 6 2 4 5 3 4 3 2 2 2 4 1 6 8 8 7 6 7 7 5 5 5 6 11 12 6 4 12 14 7 4 5 5 7 8 8 10 15 22 28 32 34 36
17 16 15 15 15 15 14 14 14 13 12 12 11 10 11 9 3 4 3 4 1 1 1 1 1 4 10 7 4 7 5 2 4 9 9 9 15 17 6 3 3 2 4 2 2 5 6 9 6 0 2 4 2 2 3 6 3 5 5 7 9 8 6 4 3 1 1 6 11 10 2 2 13 12 4 3 2 6 5 7 10 11 16 25 32 32 32 36
16 16 15 14 14 13 13 13 12 10 11 10 9 10 9 5 4 3 4 4 0 2 0 1 2 3 6 4 3 5 4 3 7 8 8 9 13 17 10 3 5 6 3 4 4 5 8 8 2 3 4 3 2 3 3 6 5 8 5 6 8 7 5 4 4 2 2 8 11 9 5 8 15 9 5 6 4 7 6 9 10 11 15 25 31 30 32 37
16 16 15 14 13 11 11 11 9 9 10 8 7 8 6 4 2 2 4 3 2 1 1 1 1 2 4 3 1 3 3 3 5 5 4 4 5 7 7 2 3 5 3 2 3 5 5 4 2 2 6 12 6 3 5 2 7 8 4 4 4 4 5 6 5 3 4 9 14 14 10 10 15 9 6 5 6 6 5 8 10 10 13 23 28 27 30 36
17 16 15 13 11 10 8 8 7 8 9 7 5 4 5 3 4 4 2 3 2 1 2 1 1 2 1 2 2 2 1 1 4 4 1 2 4 2 2 2 2 2 2 3 3 5 5 3 4 2 3 12 9 4 5 4 6 6 1 2 3 4 5 6 6 7 8 10 20 20 11 9 12 4 2 3 3 6 9 14 17 18 19 24 27 25 26 32
17 16 15 12 10 9 7 6 7 7 8 6 2 3 3 2 6 4 3 5 3 2 2 2 4 3 1 1 3 2 1 1 2 4 2 3 4 2 3 5 5 1 2 3 2 3 4 4 3 1 0 6 7 5 2 3 7 5 2 3 2 3 2 4 5 9 10 11 20 19 8 8 9 0 4 2 6 15 24 29 32 34 37 39 40 40 40 42
18 17 14 11 10 9 7 6 7 7 7 4 2 3 1 5 5 3 4 5 2 3 1 2 3 2 2 2 3 2 0 1 1 3 3 3 2 1 2 3 5 3 1 2 3 0 1 5 4 0 3 7 5 2 3 3 7 3 1 3 2 3 2 4 7 12 12 10 13 10 5 10 12 7 4 8 13 22 32 37 39 43 46 48 47 48 50 49
20 18 15 13 11 10 8 7 7 7 7 4 3 2 5 5 4 3 3 2 1 1 2 3 1 1 3 2 2 4 2 1 2 3 2 1 1 1 2 1 3 4 3 1 2 1 1 4 3 2 3 8 4 4 2 3 4 2 2 2 3 4 4 3 7 11 10 9 8 6 9 13 13 10 7 15 21 25 27 27 27 32 37 38 37 39 42 44
21 19 17 15 14 11 10 9 8 8 7 5 3 5 5 4 5 4 3 2 2 3 3 3 2 2 2 1 2 4 3 1 2 2 1 1 1 2 3 1 2 4 2 1 1 2 1 6 4 2 2 3 6 11 3 3 3 3 4 4 4 4 2 2 4 6 6 8 6 6 14 18 14 8 6 16 24 25 19 15 17 24 29 31 33 37 39 41
22 21 19 17 15 13 11 9 8 8 6 4 3 6 3 3 4 3 4 4 3 4 4 2 3 3 3 2 2 3 2 2 1 2 1 1 0 3 4 1 2 6 6 2 1 1 1 6 5 4 3 2 6 7 3 3 5 3 4 7 4 3 3 3 6 7 7 9 9 8 14 18 12 8 11 18 21 19 16 15 19 22 24 27 33 38 40 40
21 18 16 15 14 13 11 10 9 8 5 3 4 4 2 3 3 2 5 4 3 3 3 4 3 1 2 3 3 2 1 1 1 0 1 1 1 3 4 1 1 7 8 3 2 1 1 3 5 2 5 3 4 4 2 6 3 4 2 4 2 1 3 3 4 6 6 9 11 8 11 13 7 9 16 18 16 16 17 18 19 20 23 30 34 36 39 38
19 13 10 11 10 9 10 9 8 7 4 3 5 3 0 2 3 2 6 5 3 3 2 2 2 1 1 3 3 1 1 2 3 2 1 0 1 2 3 1 1 5 6 3 3 1 1 1 6 5 5 6 3 1 2 6 4 2 3 4 3 2 3 4 5 5 3 6 8 7 11 12 6 8 12 14 16 19 20 20 18 19 26 35 37 37 38 37
16 8 8 10 9 8 9 8 6 5 3 2 3 3 1 1 2 1 4 6 3 2 2 3 3 3 2 2 3 2 2 1 2 2 2 1 1 2 1 1 1 2 2 4 3 1 1 1 5 10 9 5 3 4 4 3 1 2 1 4 3 3 4 6 7 5 3 6 7 8 13 13 5 3 8 13 16 18 20 20 18 22 29 36 39 39 38 37
13 7 8 12 11 10 9 6 3 3 3 3 3 3 2 0 1 1 3 4 3 2 1 3 3 2 3 2 2 3 2 2 3 2 2 1 1 1 3 1 2 1 1 2 3 1 1 2 2 8 8 5 9 8 2 5 4 3 3 2 1 2 3 4 8 7 5 8 8 7 14 12 3 2 9 13 16 20 25 25 21 26 33 36 40 41 40 40
12 10 10 11 12 13 10 3 2 2 3 3 2 3 3 2 1 1 2 2 2 2 1 1 2 2 3 2 2 3 2 2 3 2 2 2 1 3 5 3 3 1 2 1 2 0 2 2 1 6 7 5 6 3 5 7 5 5 2 2 2 4 5 6 8 8 6 8 8 6 11 10 3 5 12 15 19 24 31 33 29 31 36 37 40 42 41 43
11 10 10 9 12 15 9 4 3 4 4 2 1 2 3 4 4 3 3 3 3 2 2 1 2 2 2 2 3 3 2 1 2 2 3 2 3 7 4 5 4 1 1 1 2 1 0 1 2 4 8 7 4 3 0 1 3 2 1 5 7 10 11 9 7 6 4 7 11 9 9 10 8 10 13 16 20 21 26 35 36 33 36 39 41 41 43 46
7 6 8 9 15 17 9 5 3 3 4 2 1 3 2 2 5 6 5 4 4 4 3 1 2 3 3 3 3 0 1 0 1 2 2 2 4 7 3 7 4 1 1 1 1 1 1 1 2 1 5 7 6 6 6 7 6 4 4 9 13 15 13 10 6 5 5 8 12 10 10 14 15 15 16 17 19 19 23 32 37 36 39 43 43 44 46 47
6 4 4 5 13 18 12 8 6 2 3 3 1 2 5 4 3 7 7 5 5 5 3 2 3 4 2 3 2 0 1 1 1 3 2 2 3 4 4 5 5 3 3 6 7 4 2 0 1 5 7 7 7 9 8 8 8 7 8 11 16 17 14 9 5 6 9 9 10 11 14 20 20 18 19 19 19 21 21 23 29 35 41 44 47 51 53 54
7 4 5 5 6 11 9 7 8 4 2 5 2 1 6 5 1 3 6 5 6 7 4 2 4 3 3 5 4 2 2 1 1 4 3 2 2 1 3 3 2 3 8 7 8 5 3 1 5 10 11 9 9 11 11 10 10 9 9 12 17 18 15 10 8 11 12 9 9 13 17 20 20 19 21 22 21 20 18 18 25 34 41 47 52 57 59 60
11 5 10 10 5 4 5 7 11 8 3 5 4 1 4 5 3 4 4 3 4 6 4 1 3 4 5 6 5 3 4 2 2 4 3 2 2 1 3 2 2 5 7 4 3 3 2 3 7 9 11 9 8 11 11 10 10 8 9 15 18 18 16 13 13 16 13 8 12 18 20 20 19 19 21 22 20 20 21 26 33 40 45 51 54 56 56 58
15 6 9 12 8 5 6 8 12 12 7 5 4 3 5 7 6 4 2 2 2 4 5 5 4 5 6 6 6 4 5 4 3 3 3 2 1 1 1 1 1 4 4 2 1 3 2 2 5 6 9 8 8 10 10 9 9 8 12 18 18 17 18 15 15 16 13 12 18 22 22 20 18 17 19 24 29 31 32 36 41 42 45 49 52 53 55 56
22 16 13 11 6 5 8 9 10 9 7 7 6 6 7 9 9 4 2 5 4 3 4 6 6 6 6 6 7 5 6 7 5 4 6 4 0 2 1 1 3 2 1 1 2 1 1 2 3 3 6 8 7 8 8 7 7 10 17 20 16 14 15 12 12 12 11 14 21 23 19 16 15 16 21 30 39 39 33 32 36 40 44 47 49 52 56 57
29 26 22 12 4 6 9 8 7 5 4 7 8 6 7 9 10 7 3 6 8 5 6 8 7 6 4 4 6 6 5 7 6 7 10 7 4 4 3 3 5 2 0 1 1 1 1 2 2 2 3 7 6 7 9 9 9 12 16 13 8 8 9 9 11 11 12 17 22 19 14 12 13 15 20 27 34 33 27 25 32 41 48 51 50 55 62 62
31 26 26 17 5 8 11 6 6 7 5 7 10 7 6 7 10 10 4 5 8 7 8 10 10 7 3 5 7 7 6 8 6 7 10 7 7 8 8 8 8 5 3 2 1 1 2 2 1 1 2 6 9 10 9 9 8 7 6 2 3 8 11 13 14 13 14 16 16 12 11 14 16 17 19 22 25 28 27 27 33 43 53 59 62 63 62 57
Wind_Direction
15 14 14 14 14 14 13 12 12 11 11 10 10 8 5 3 1 359 356 356 355 355 354 353 354 352 352 354 358 20 68 80 77 66 56 49 37 27 27 21 12 4 354 347 338 333 339 354 353 358 5 13 17 5 1 7 3 7 85 66 292 204 192 192 188 202 219 293 288 303 315 281 289 299 296 296 276 269 278 277 275 272 274 278 281 285 284 286
13 12 12 13 13 12 10 10 11 11 10 10 11 8 5 3 2 0 358 357 355 354 353 351 353 351 348 351 0 23 83 93 72 56 45 36 27 22 23 12 0 353 348 348 347 347 353 4 5 5 9 23 26 5 358 359 0 52 115 95 255 204 206 203 204 209 211 282 294 301 310 297 284 297 302 292 281 284 284 285 286 281 287 295 293 289 286 287
11 11 12 13 12 10 8 8 9 9 10 10 10 7 4 3 3 1 358 357 355 354 352 349 351 351 348 348 358 12 106 116 44 35 25 14 21 20 10 357 350 346 348 353 353 354 357 8 8 1 9 30 24 0 359 354 343 132 133 268 245 214 245 241 236 243 249 275 293 298 304 295 289 297 292 271 290 296 277 281 284 277 291 308 309 306 298 294
9 10 11 12 9 7 5 6 7 8 9 10 9 6 4 2 2 0 357 357 355 353 351 347 349 352 351 348 357 5 131 123 26 20 9 9 29 10 355 347 345 345 349 353 354 356 359 8 358 356 11 29 17 0 358 347 339 161 157 215 232 195 290 262 254 267 271 277 277 287 302 295 294 296 275 268 302 298 278 281 280 279 295 306 307 306 301 297
7 8 9 9 6 4 3 4 5 6 8 9 9 6 3 2 1 358 356 355 355 353 348 345 348 353 355 356 9 18 128 127 11 20 19 27 24 351 349 346 349 352 354 355 354 354 349 352 346 359 14 16 14 17 343 320 327 233 226 230 244 232 274 274 275 284 284 282 279 286 297 291 294 291 273 263 252 265 278 287 288 290 297 300 301 301 299 296
5 5 6 4 2 1 1 2 3 5 6 8 8 5 2 1 360 357 355 354 354 352 345 345 350 359 6 16 32 44 105 112 358 24 18 12 359 346 351 352 360 359 357 355 350 354 346 347 351 6 20 11 358 353 310 294 273 266 263 250 265 252 244 277 283 286 286 279 275 278 285 291 291 285 278 259 246 267 282 290 290 292 297 297 298 300 299 298
3 2 2 360 359 358 359 1 1 2 4 6 7 4 2 1 360 355 353 354 353 350 345 347 353 7 25 50 71 73 85 81 34 34 16 7 358 352 354 351 360 356 352 350 351 8 359 1 5 10 24 4 277 244 291 278 223 219 270 279 288 275 256 277 286 287 286 274 273 279 283 287 276 276 287 265 261 277 289 293 294 298 303 302 302 307 308 306
360 360 358 356 356 356 357 358 359 360 1 4 6 4 0 0 360 353 352 353 352 349 345 348 356 12 41 86 91 77 69 59 47 45 16 3 349 346 344 338 347 347 350 354 1 13 9 17 8 360 9 349 258 258 280 293 241 201 239 275 294 293 283 289 296 294 292 284 281 278 264 269 271 274 281 274 279 292 300 301 303 306 307 304 307 317 319 315
357 356 355 354 353 354 355 355 357 358 359 3 4 3 359 359 1 354 351 352 351 348 344 350 1 17 52 97 89 71 53 42 37 23 353 339 333 335 336 336 342 345 352 355 357 1 4 14 356 336 301 267 266 265 194 13 269 202 237 280 292 294 295 302 304 301 305 301 281 227 232 264 278 287 274 275 295 317 313 306 303 299 296 297 302 311 313 312
352 353 352 352 352 351 352 353 355 356 359 1 2 1 357 359 1 355 352 350 350 348 344 351 5 25 59 82 78 71 52 40 17 357 349 333 334 338 343 349 353 356 351 341 340 345 354 1 346 329 299 267 250 248 194 149 259 228 266 290 289 291 297 303 303 307 319 312 257 183 231 264 271 278 261 281 318 328 308 296 289 285 288 294 297 301 304 305
350 350 350 350 349 349 350 352 355 357 358 359 360 359 356 357 1 358 354 350 349 348 345 351 7 31 67 66 76 84 51 28 6 2 357 347 358 359 9 15 16 17 1 344 340 343 354 358 347 334 304 261 265 259 223 224 268 273 290 293 293 303 304 305 305 322 347 329 294 240 232 259 270 206 245 283 314 317 299 289 284 284 290 295 296 298 299 301
348 349 349 348 347 348 350 353 356 357 358 358 359 359 357 355 358 359 356 352 350 348 347 352 8 43 85 59 71 75 42 26 19 24 19 16 24 31 40 37 32 23 7 354 345 344 352 351 344 327 284 271 295 312 254 271 290 285 304 287 300 337 318 310 323 346 358 327 324 328 266 251 212 218 264 294 309 302 293 288 287 291 293 295 296 297 300 303
347 348 348 345 345 347 350 354 356 357 358 359 359 359 358 355 355 357 358 355 350 349 350 356 12 76 105 58 62 53 38 35 39 37 33 33 33 43 48 42 35 21 9 358 345 344 350 350 342 311 278 267 279 316 293 297 306 282 324 250 314 350 307 311 335 335 345 318 337 355 314 291 250 234 278 309 311 306 300 296 294 294 294 298 300 303 307 309
344 346 346 344 345 347 350 354 355 358 359 360 0 360 358 354 352 352 356 355 349 347 350 359 14 90 108 80 61 40 43 47 45 39 36 37 33 36 38 34 28 18 12 1 347 347 354 355 344 314 276 254 274 303 303 320 353 292 354 59 359 345 283 310 322 328 353 311 342 3 297 293 296 275 295 311 313 315 305 301 301 300 301 306 311 314 317 318
342 344 344 344 344 345 350 353 354 358 359 0 1 358 358 355 351 348 353 355 349 344 347 5 13 105 113 92 55 33 47 53 44 35 31 32 27 24 23 20 18 17 13 2 352 355 357 358 350 358 46 278 307 333 324 337 3 19 10 336 348 331 295 311 307 315 359 303 345 5 293 293 301 296 306 308 310 311 301 302 305 307 312 318 323 325 326 327
340 342 344 344 343 344 349 352 354 357 358 360 358 357 359 356 352 347 349 353 350 344 347 8 8 145 117 66 42 27 38 48 41 31 25 22 18 15 17 14 14 17 13 2 358 360 1 5 6 31 44 17 30 25 6 0 345 13 29 322 316 319 316 321 308 253 66 314 339 4 277 293 300 302 308 309 311 309 299 301 305 310 319 328 333 334 335 336
337 339 342 344 343 343 347 351 353 355 358 358 355 358 360 355 355 353 350 353 351 347 346 2 7 138 87 37 41 4 11 43 39 29 19 13 11 11 12 8 12 18 12 6 354 359 4 3 356 5 43 53 63 50 24 8 331 330 15 318 289 291 299 314 311 311 60 36 319 303 274 281 287 296 304 308 313 313 300 299 305 313 326 338 344 345 346 346
333 335 338 344 343 340 346 350 351 354 357 354 354 357 356 354 359 0 354 350 351 352 338 355 16 134 68 24 20 349 359 51 33 23 13 6 6 7 4 360 6 12 11 10 350 359 2 356 21 30 18 16 22 51 32 323 292 298 320 310 298 288 261 267 284 299 326 326 275 291 292 289 293 297 301 306 310 310 300 300 306 318 337 349 354 358 1 4
329 332 335 342 341 339 344 348 349 353 352 352 355 353 351 355 0 5 358 349 355 10 294 325 344 200 294 1 9 354 4 43 28 20 7 3 4 3 1 357 359 10 20 14 345 359 6 360 29 25 354 329 321 41 241 249 240 271 291 283 297 306 286 271 262 275 314 315 295 292 293 296 301 301 304 307 309 307 303 305 314 336 356 3 9 15 18 21
325 329 332 338 339 338 342 346 348 348 348 352 353 351 355 1 2 3 355 349 352 356 292 307 322 311 313 340 3 9 24 31 33 19 3 359 2 359 359 356 355 13 34 14 311 346 22 13 349 276 275 279 285 199 193 215 216 280 303 283 288 297 291 293 289 287 346 324 304 314 301 299 299 298 303 306 306 307 307 311 329 7 23 23 24 24 22 21
323 326 329 335 337 337 339 344 345 344 349 351 349 356 12 16 14 334 342 340 334 329 304 318 337 344 345 330 358 12 21 24 47 10 358 356 2 358 354 1 4 7 1 313 281 320 23 11 289 251 237 255 271 128 131 107 93 299 303 300 306 287 279 290 291 293 343 36 298 336 318 300 297 296 300 302 302 302 305 316 350 29 42 37 29 22 17 14
320 323 326 332 336 335 336 340 341 341 347 347 348 4 20 18 9 333 326 313 314 313 263 318 11 16 9 4 4 8 10 15 33 356 357 358 4 1 356 16 30 328 329 353 350 340 1 313 265 258 236 255 333 105 119 115 101 288 284 306 308 289 283 292 291 296 331 134 304 339 322 297 294 293 296 295 290 293 303 333 51 47 42 38 24 18 14 10
316 320 323 330 335 333 332 336 337 337 341 345 352 6 11 4 359 343 320 285 299 300 218 342 63 28 19 22 9 8 10 18 351 349 360 2 0 2 13 35 4 323 350 30 20 348 322 279 259 267 312 315 337 38 77 75 77 214 260 297 292 296 309 295 304 316 315 278 267 302 291 286 289 290 292 289 285 293 303 349 72 56 41 36 22 18 13 9
313 318 321 329 335 330 329 333 333 333 337 347 356 1 1 356 352 343 323 280 282 291 275 115 76 23 18 16 7 5 8 25 0 351 1 7 6 8 22 49 8 337 344 46 42 292 275 278 289 47 43 73 294 326 14 3 328 232 229 246 265 287 287 273 304 327 316 299 258 158 275 276 285 289 291 293 296 306 304 334 67 54 35 29 20 19 14 8
311 317 320 328 332 327 328 329 327 329 335 344 351 354 356 348 346 344 328 307 293 297 279 155 1 8 13 12 9 357 349 36 11 360 6 12 17 16 357 39 51 331 302 347 357 278 274 281 354 46 20 63 29 303 302 213 317 300 242 225 241 274 283 284 310 338 327 305 317 78 317 289 289 289 291 301 303 302 305 341 65 46 29 26 21 18 11 7
309 315 319 324 328 325 326 325 324 328 332 337 344 351 350 342 345 345 341 31 319 297 45 117 320 9 2 3 6 358 353 24 356 355 11 11 15 19 357 14 39 316 279 329 303 277 280 309 37 60 308 328 1 299 252 165 28 309 263 203 225 260 281 286 303 328 320 291 303 33 308 285 288 285 289 301 296 293 309 29 62 32 26 26 21 16 8 5
307 314 317 318 323 323 323 322 321 324 327 331 340 346 343 341 344 342 348 19 338 284 58 92 127 56 349 359 9 12 327 326 337 345 5 1 8 21 356 328 359 294 253 33 325 279 299 333 8 32 324 329 337 306 248 140 114 262 261 344 307 295 286 283 285 288 274 282 296 303 227 269 280 278 289 295 283 292 334 44 40 20 22 21 18 13 5 4
306 311 313 313 317 317 317 317 315 320 325 328 338 340 339 339 337 347 34 357 315 117 127 127 127 12 352 359 16 34 280 311 336 341 355 1 12 18 353 295 304 269 265 125 259 285 305 327 328 323 329 304 275 286 221 118 118 259 290 327 307 288 275 279 279 274 282 290 294 288 252 265 270 280 319 313 279 311 14 35 20 6 13 15 10 5 2 3
304 308 309 308 310 311 312 309 308 315 321 326 333 333 337 336 331 38 69 281 294 89 149 168 193 329 351 357 12 27 7 333 16 320 344 15 16 12 335 281 336 274 275 153 224 268 236 263 272 273 289 252 257 290 163 112 39 291 315 322 300 288 274 273 268 273 305 296 280 285 280 261 274 289 332 324 298 3 17 22 12 0 13 11 3 0 0 1
302 304 305 303 303 304 305 303 304 311 316 321 325 330 337 336 8 50 347 260 285 9 187 82 310 330 358 4 352 5 12 8 347 338 349 7 9 16 11 295 30 14 308 359 269 264 281 288 279 257 274 219 190 343 146 124 23 323 340 340 321 318 311 294 284 289 331 277 274 281 278 298 293 296 346 342 54 79 30 2 359 2 14 5 357 357 358 359
300 300 299 297 295 295 297 301 306 312 313 314 318 329 337 346 73 82 264 247 39 324 258 28 321 0 29 32 326 337 359 348 354 9 6 355 5 18 21 354 14 17 346 351 331 305 319 317 309 99 53 50 100 38 94 126 50 14 8 352 328 319 331 321 331 21 269 273 279 292 342 322 290 292 339 329 42 72 33 8 3 7 7 355 352 354 355 356
297 295 294 291 286 286 290 297 309 311 304 305 312 330 358 14 20 200 248 317 347 294 125 159 290 65 63 52 267 291 324 330 0 37 31 10 35 26 26 60 349 344 343 327 323 338 321 298 326 115 60 38 41 18 7 60 46 17 338 356 351 322 327 314 327 339 260 273 283 297 334 306 274 289 340 350 42 35 2 11 10 4 353 346 349 354 353 352
292 290 288 284 279 277 280 290 301 299 292 291 303 345 58 39 289 221 231 315 267 276 76 121 17 62 70 4 277 278 335 273 338 21 80 53 68 55 14 38 3 302 278 286 312 352 322 290 13 14 36 41 58 65 0 337 0 347 266 77 15 333 329 310 317 307 280 282 289 299 325 297 277 301 59 92 57 338 340 359 358 352 346 344 348 352 351 349
287 284 280 276 270 268 272 288 293 288 280 273 295 25 44 288 259 225 230 248 249 348 54 104 19 13 69 334 282 285 26 240 333 12 30 39 44 28 341 348 7 358 247 301 308 352 329 298 9 32 87 50 58 82 126 286 324 316 181 98 56 58 359 298 297 292 291 290 290 300 311 286 295 46 134 94 348 343 349 351 350 349 346 346 347 348 348 346
281 277 272 267 262 259 267 284 286 278 257 236 86 65 241 253 254 231 234 241 277 344 358 99 56 355 310 326 314 310 166 209 1 17 21 46 67 53 24 329 347 358 336 340 310 300 314 274 262 10 94 96 82 111 166 302 324 299 128 56 56 115 177 261 269 265 277 282 280 295 278 270 299 313 338 358 349 349 351 350 351 348 344 345 345 344 342 338
275 271 265 260 258 256 261 274 278 264 234 184 95 193 214 234 238 202 200 207 130 113 334 337 93 183 299 305 317 336 19 71 30 25 357 36 93 100 88 322 333 7 55 69 313 7 346 277 267 338 50 105 80 330 280 281 300 294 18 13 274 253 200 235 274 257 266 277 274 299 283 279 299 308 343 2 348 343 347 349 346 337 335 338 338 335 332 329
270 267 263 259 258 255 257 266 265 247 219 160 165 228 216 226 220 183 159 148 134 111 74 333 249 181 248 254 269 304 348 9 24 31 307 319 51 115 119 35 9 22 28 150 156 98 285 281 255 205 200 121 5 345 2 108 71 37 333 300 285 300 223 198 284 266 268 276 277 306 292 291 300 296 358 2 341 333 335 335 328 325 330 332 328 326 324 322
266 266 265 261 258 255 254 258 248 225 200 158 222 245 220 211 214 167 154 148 122 93 104 208 238 172 181 214 245 260 305 329 324 8 322 245 143 116 113 104 16 7 348 348 61 104 348 305 280 154 135 320 348 11 52 55 61 92 302 311 330 351 339 324 307 302 306 292 288 300 290 290 298 308 338 342 328 322 324 323 322 324 327 324 321 321 319 318
265 266 265 258 255 253 246 243 228 199 181 179 227 247 216 230 260 197 176 156 116 120 156 216 242 140 153 180 194 236 283 242 206 105 117 178 197 92 81 95 346 355 350 39 77 290 70 306 273 138 82 351 346 44 8 312 341 102 51 338 341 17 322 308 281 286 306 292 286 297 285 281 304 324 323 324 317 317 320 320 320 319 317 317 317 316 315 312
259 258 257 249 243 238 225 218 204 179 177 197 202 223 264 259 274 211 185 190 161 168 205 211 203 209 203 190 194 183 70 172 161 155 202 185 104 91 56 34 358 344 344 39 65 350 69 215 268 292 0 353 341 96 290 306 327 32 34 6 4 12 329 301 273 265 280 278 287 305 282 275 309 322 308 313 315 316 317 316 314 311 312 314 314 313 311 308
248 248 253 237 222 216 201 191 193 178 191 232 197 216 284 334 297 260 197 213 216 200 196 167 164 187 184 187 207 168 111 182 171 157 225 232 84 101 95 37 326 307 359 31 32 25 107 179 268 292 317 337 297 256 258 267 228 170 87 31 3 341 341 321 296 284 278 279 293 301 284 284 315 312 300 315 314 312 314 311 307 308 311 313 313 313 309 306
232 236 248 230 213 203 184 179 209 184 190 233 203 203 221 245 312 253 204 217 230 226 166 153 162 177 172 167 193 169 133 168 195 202 217 209 35 114 155 71 336 277 103 17 306 249 141 124 262 281 289 285 282 288 240 165 142 113 92 49 333 306 337 304 286 297 297 286 289 279 276 285 327 318 305 311 308 309 310 307 306 309 312 314 313 312 309 308
222 231 234 220 202 189 179 195 239 204 219 233 208 207 214 202 179 182 200 219 220 204 156 182 186 178 182 155 132 166 163 151 181 185 133 96 57 149 147 64 26 71 102 45 297 321 97 71 338 289 289 276 275 290 135 139 89 57 31 336 323 296 287 263 269 289 287 288 297 275 268 281 329 319 304 304 306 308 308 307 309 311 313 313 312 312 310 309
225 235 226 213 197 184 186 223 204 206 242 246 222 228 215 209 201 187 203 213 201 166 138 195 197 169 166 106 108 175 197 142 141 130 122 132 164 165 142 25 31 105 106 217 253 347 11 358 25 331 315 314 320 343 334 272 27 55 314 322 311 292 292 287 282 288 282 289 295 285 277 291 308 307 300 304 306 305 305 308 310 311 310 311 311 312 311 309
221 232 224 210 198 191 206 245 200 192 221 201 240 228 193 218 217 207 207 202 188 169 148 176 148 114 113 91 71 152 233 170 153 123 110 129 178 193 251 343 351 277 255 196 98 59 249 258 92 46 301 302 305 303 297 311 328 340 344 329 309 300 302 303 305 304 290 287 289 284 281 288 296 300 300 303 304 302 304 308 309 310 309 310 312 312 311 308
194 203 212 186 196 205 225 245 221 196 175 169 279 221 189 210 223 205 204 199 190 170 131 138 145 113 117 129 107 249 280 352 96 133 147 161 181 210 257 316 316 259 160 94 60 63 123 167 214 216 231 248 264 274 285 300 301 307 327 315 298 295 298 300 304 288 280 286 286 275 279 290 298 303 304 303 303 303 305 307 309 310 309 311 312 311 309 307
192 187 180 156 194 214 228 238 220 213 159 171 200 187 187 205 230 194 201 196 187 172 130 119 162 162 181 160 143 189 198 30 123 151 164 178 172 249 286 288 294 175 149 102 49 55 115 241 243 234 238 243 258 271 281 288 287 295 308 295 285 287 293 295 284 275 281 292 286 278 284 292 297 302 303 303 303 302 303 309 309 309 308 309 308 307 305 304
205 202 185 182 188 193 207 222 209 203 190 177 191 170 181 199 196 196 201 171 173 181 172 187 197 195 187 166 153 166 163 168 206 180 152 149 159 1 340 318 126 138 137 99 50 96 133 238 232 238 253 249 248 263 269 275 282 291 286 277 277 283 287 286 278 276 280 279 277 286 291 291 294 300 300 300 302 302 305 310 309 306 304 304 303 302 301 301
200 201 181 185 197 180 172 184 186 193 204 193 203 217 200 203 204 200 166 132 189 219 204 211 214 192 178 164 154 166 182 188 216 209 168 146 174 156 43 342 158 137 107 71 214 167 126 229 221 235 266 264 249 255 258 260 273 284 277 272 274 279 281 279 275 276 279 274 276 286 292 291 295 299 299 302 304 302 304 306 305 302 300 300 299 299 298 298
202 203 184 171 188 184 161 161 171 190 206 197 211 221 203 206 210 202 154 164 190 227 204 210 206 176 171 167 162 185 200 172 161 182 166 135 105 177 159 227 197 156 80 75 264 227 146 229 220 215 278 283 264 254 258 265 277 280 275 272 272 275 276 276 279 286 292 287 285 291 296 296 296 299 304 308 306 302 302 303 302 302 302 300 298 298 298 297
210 210 202 186 164 169 171 169 168 180 215 204 207 205 195 207 203 184 194 204 200 204 197 194 179 157 164 177 179 207 206 165 161 178 168 160 178 188 182 172 162 143 4 196 257 329 209 261 326 37 318 286 280 288 294 298 295 278 271 270 273 278 282 287 291 297 299 292 292 298 302 298 301 308 308 307 303 299 300 304 306 307 307 304 301 299 298 296
206 204 203 199 182 172 177 172 170 193 219 202 198 198 194 207 193 178 206 232 207 217 221 190 159 135 153 197 203 215 196 170 175 174 171 184 202 205 215 211 192 183 172 164 199 232 195 204 280 1 316 283 290 303 307 316 319 286 267 292 319 301 302 300 294 292 292 291 295 300 298 296 304 310 307 305 304 300 302 311 314 311 309 306 301 298 297 299